User: anonymous   Login
Location: Unspecified
(0.0000°N, 0.0000°E)
Time: 08:57:24
(UTC+00:00)
Language:

Picosat 5 - Orbit

View from above orbital plane
View from above orbital plane
View from above satellite
View from above satellite

Ground track
Ground track

The orbit data is extracted from the following two-line orbital elements,

1 26093U 00004L   17204.74302090 +.00000310 +00000-0 +93881-4 0  9990
2 26093 100.1847 318.9771 0029718 300.8843 058.9423 14.51122213920107
Epoch (UTC): 23 July 2017 17:49:57
Eccentricity: 0.0029718
inclination: 100.1847°
perigee height: 701 km
apogee height: 743 km
right ascension of ascending node: 318.9771°
argument of perigee: 300.8843°
revolutions per day: 14.51122213
mean anomaly at epoch: 58.9423°
orbit number at epoch: 92010

The dashed part of the orbit path shows where the satellite is in the earth's shadow,  

DLR